Weather History for St. Petersburg, FL

Change the Weather History Date:

Friday, March 7, 2014

  Actual Average Record
Temperature  
Mean Temperature 61 °F -  
Max Temperature 68 °F 74 °F 86 °F (1961)
Min Temperature 54 °F 59 °F 39 °F (1954)
Degree Days  
Heating Degree Days 4    
Growing Degree Days 11 (Base 50)    
Moisture  
Dew Point 55 °F    
Average Humidity 81    
Maximum Humidity 93    
Minimum Humidity 70    
Precipitation  
Precipitation 0.00 in - - ()
Sea Level Pressure  
Sea Level Pressure 29.89 in    
Wind  
Wind Speed 9 mph (NNW)    
Max Wind Speed 18 mph    
Max Gust Speed 26 mph    
Visibility 10 miles    
Events      
Averages and records for this station are not official NWS values.
T = Trace of Precipitation, MM = Missing Value Source: NWS Daily Summary

Daily Weather History Graph

Daily Weather History Graph

Search for Another Location

Airport:

Trip Planner

Search our weather history database for the weather conditions in past years. The results will help you decide how hot, cold, wet, or windy it might be!

Date:

Astronomy

Mar. 07, 2014 Rise Set
Actual Time 6:48 AM EST 6:34 PM EST
Civil Twilight 6:25 AM EST 6:58 PM EST
Nautical Twilight 5:58 AM EST 7:25 PM EST
Astronomical Twilight 5:31 AM EST 7:52 PM EST
Moon 11:12 AM EST (3/7) 12:08 AM EST (3/7)
Length of Visible Light 12h 32m
Length of Day
11h 45m
Waxing Crescent, 42% of the Moon is Illuminated
Mar 7
Waxing Crescent
Mar 8
First Quarter
Mar 16
Full
Mar 23
Last Quarter
Mar 30
New

Hourly Weather History & Observations

Time (EST) Temp. Dew Point Humidity Pressure Visibility Wind Dir Wind Speed Gust Speed Precip Events Conditions
12:11 AM 68.0 °F 66.0 °F 93% 29.79 in 10.0 mi WSW 11.5 mph - N/A   Mostly Cloudy
12:27 AM 68.0 °F 66.0 °F 93% 29.78 in 10.0 mi West 8.1 mph - N/A   Overcast
12:53 AM 68.0 °F 64.9 °F 90% 29.79 in 10.0 mi NNW 6.9 mph - N/A   Scattered Clouds
1:11 AM 66.0 °F 64.0 °F 93% 29.79 in 10.0 mi NNW 5.8 mph - N/A   Mostly Cloudy
1:53 AM 64.9 °F 63.0 °F 93% 29.79 in 10.0 mi North 6.9 mph - N/A   Mostly Cloudy
2:44 AM 64.0 °F 62.1 °F 93% 29.79 in 10.0 mi NNW 3.5 mph - N/A   Mostly Cloudy
2:53 AM 64.0 °F 62.1 °F 93% 29.79 in 10.0 mi NNW 3.5 mph - N/A   Overcast
3:24 AM 64.9 °F 61.0 °F 87% 29.79 in 10.0 mi NW 3.5 mph - N/A   Overcast
3:53 AM 64.9 °F 61.0 °F 87% 29.79 in 10.0 mi West 3.5 mph - N/A   Overcast
4:12 AM 64.9 °F 61.0 °F 87% 29.80 in 10.0 mi NW 5.8 mph - N/A   Overcast
4:26 AM 64.9 °F 60.1 °F 84% 29.79 in 10.0 mi NW 8.1 mph - N/A   Overcast
4:53 AM 64.0 °F 60.1 °F 87% 29.80 in 10.0 mi NW 4.6 mph - N/A   Mostly Cloudy
5:53 AM 64.0 °F 57.0 °F 78% 29.82 in 10.0 mi NW 4.6 mph - N/A   Mostly Cloudy
6:53 AM 63.0 °F 57.9 °F 84% 29.85 in 10.0 mi Variable 3.5 mph - N/A   Overcast
7:53 AM 63.0 °F 57.0 °F 81% 29.88 in 10.0 mi NNW 11.5 mph 19.6 mph N/A   Mostly Cloudy
8:16 AM 63.0 °F 55.0 °F 75% 29.89 in 10.0 mi NNW 15.0 mph - N/A   Mostly Cloudy
8:51 AM 60.8 °F 53.6 °F 77% 29.91 in 10.0 mi NNW 12.7 mph - N/A   Scattered Clouds
8:53 AM 61.0 °F 54.0 °F 78% 29.91 in 10.0 mi North 15.0 mph 20.7 mph N/A   Mostly Cloudy
9:53 AM 60.1 °F 52.0 °F 75% 29.93 in 10.0 mi NNW 17.3 mph 26.5 mph N/A   Overcast
10:24 AM 61.0 °F 52.0 °F 72% 29.93 in 10.0 mi North 16.1 mph - N/A   Mostly Cloudy
10:53 AM 62.1 °F 53.1 °F 72% 29.94 in 10.0 mi North 11.5 mph - N/A   Partly Cloudy
11:49 AM 60.8 °F 51.8 °F 72% 29.94 in 10.0 mi NNW 13.8 mph 23.0 mph N/A   Overcast
11:53 AM 61.0 °F 51.1 °F 70% 29.95 in 10.0 mi NW 11.5 mph 23.0 mph N/A   Overcast
12:53 PM 60.1 °F 51.1 °F 72% 29.93 in 10.0 mi NW 15.0 mph 23.0 mph N/A   Overcast
1:53 PM 60.1 °F 51.1 °F 72% 29.92 in 10.0 mi NNW 13.8 mph - N/A   Overcast
2:53 PM 60.1 °F 51.1 °F 72% 29.92 in 10.0 mi NNW 10.4 mph - N/A   Mostly Cloudy
3:53 PM 61.0 °F 52.0 °F 72% 29.92 in 10.0 mi NNW 11.5 mph 21.9 mph N/A   Mostly Cloudy
4:53 PM 59.0 °F 51.1 °F 75% 29.94 in 10.0 mi NNW 13.8 mph 23.0 mph N/A   Overcast
5:53 PM 57.9 °F 50.0 °F 75% 29.96 in 10.0 mi NNW 9.2 mph 23.0 mph N/A   Overcast
6:21 PM 57.9 °F 50.0 °F 75% 29.95 in - North - - N/A   Unknown
6:53 PM 55.9 °F 48.9 °F 77% 29.97 in 10.0 mi NNW 9.2 mph - N/A   Overcast
7:53 PM 55.9 °F 50.0 °F 80% 30.00 in 10.0 mi North 11.5 mph - N/A   Overcast
8:53 PM 55.9 °F 48.9 °F 77% 30.03 in 10.0 mi North 15.0 mph 24.2 mph N/A   Overcast
9:53 PM 55.0 °F 48.9 °F 80% 30.05 in 10.0 mi North 9.2 mph - N/A   Overcast
10:53 PM 54.0 °F 48.0 °F 80% 30.05 in 10.0 mi North 12.7 mph - N/A   Overcast
11:53 PM 54.0 °F 48.9 °F 83% 30.07 in 10.0 mi NE 18.4 mph - N/A   Overcast